• In Austria
  • List of Countries
  • For 7 days
  • Water Temperature
  • Satellite Maps
  • Weather Map
  • News
  • Weather Widgets
  • user-avatar
    Login

    Hourly Weather Blotnica

    Today, 21 June, Thursday

    Time Temperature Precipitation Wind Pressure Humidity
    00:00 +19°C° 0 mm 4 mps 759 mmHg 87%
    01:00 +19°C° 0 mm 4 mps 758 mmHg 86%
    02:00 +18°C° 0 mm 4 mps 758 mmHg 88%
    03:00 +18°C° 0 mm 4 mps 757 mmHg 89%
    04:00 +18°C° 0 mm 4 mps 757 mmHg 91%
    05:00 +19°C° 0 mm 4 mps 756 mmHg 86%
    06:00 +21°C° 0 mm 5 mps 756 mmHg 80%
    07:00 +23°C° 0 mm 4 mps 755 mmHg 74%
    08:00 +23°C° 0.2 mm 5 mps 755 mmHg 68%
    09:00 +24°C° 0.2 mm 6 mps 754 mmHg 62%
    10:00 +26°C° 0.2 mm 7 mps 753 mmHg 56%
    11:00 +23°C° 0.4 mm 7 mps 753 mmHg 66%
    12:00 +20°C° 0.4 mm 7 mps 753 mmHg 76%
    13:00 +16°C° 0 mm 8 mps 753 mmHg 88%
    14:00 +15°C° 0.8 mm 7 mps 754 mmHg 88%
    15:00 +14°C° 0.8 mm 7 mps 754 mmHg 88%
    16:00 +12°C° 0.8 mm 7 mps 754 mmHg 88%
    17:00 +12°C° 0.4 mm 8 mps 754 mmHg 87%
    18:00 +12°C° 0.4 mm 8 mps 755 mmHg 86%
    19:00 +11°C° 0.4 mm 9 mps 755 mmHg 85%
    20:00 +11°C° 0.3 mm 9 mps 755 mmHg 85%
    21:00 +10°C° 0.3 mm 9 mps 755 mmHg 85%
    22:00 +10°C° 0.3 mm 9 mps 756 mmHg 85%
    23:00 +8°C° 0.2 mm 9 mps 756 mmHg 84%

    Tomorrow, 22 June, Friday

    Time Temperature Precipitation Wind Pressure Humidity
    00:00 +8°C° 0.2 mm 9 mps 756 mmHg 84%
    01:00 +8°C° 0.2 mm 9 mps 756 mmHg 83%
    02:00 +8°C° 0.3 mm 9 mps 756 mmHg 82%
    03:00 +7°C° 0.3 mm 9 mps 756 mmHg 82%
    04:00 +7°C° 0.3 mm 9 mps 756 mmHg 82%
    05:00 +8°C° 0.2 mm 9 mps 756 mmHg 79%
    06:00 +10°C° 0.2 mm 9 mps 756 mmHg 76%
    07:00 +11°C° 0.2 mm 9 mps 756 mmHg 73%
    08:00 +12°C° 0.4 mm 9 mps 756 mmHg 70%
    09:00 +13°C° 0.4 mm 9 mps 757 mmHg 68%
    10:00 +15°C° 0.4 mm 9 mps 757 mmHg 65%
    11:00 +15°C° 0.5 mm 8 mps 757 mmHg 67%
    12:00 +15°C° 0.5 mm 8 mps 757 mmHg 69%
    13:00 +16°C° 0.5 mm 8 mps 757 mmHg 71%
    14:00 +16°C° 0.3 mm 7 mps 758 mmHg 68%
    15:00 +17°C° 0.3 mm 7 mps 758 mmHg 65%
    16:00 +17°C° 0.3 mm 7 mps 758 mmHg 62%
    17:00 +17°C° 0.1 mm 7 mps 758 mmHg 64%
    18:00 +16°C° 0.1 mm 6 mps 758 mmHg 67%
    19:00 +15°C° 0.1 mm 6 mps 758 mmHg 69%
    20:00 +14°C° 0.1 mm 6 mps 758 mmHg 74%
    21:00 +13°C° 0.1 mm 6 mps 758 mmHg 79%
    22:00 +11°C° 0.1 mm 7 mps 758 mmHg 84%
    23:00 +11°C° 0.3 mm 7 mps 758 mmHg 85%

    Day after tomorrow, 23 June, Saturday

    Time Temperature Precipitation Wind Pressure Humidity
    00:00 +11°C° 0.3 mm 7 mps 758 mmHg 87%
    01:00 +11°C° 0.3 mm 7 mps 758 mmHg 88%
    02:00 +11°C° 0.3 mm 7 mps 758 mmHg 88%
    03:00 +11°C° 0.3 mm 6 mps 758 mmHg 88%
    04:00 +11°C° 0.3 mm 6 mps 758 mmHg 87%
    05:00 +11°C° 0.1 mm 6 mps 758 mmHg 83%
    06:00 +12°C° 0.1 mm 7 mps 759 mmHg 78%
    07:00 +14°C° 0.1 mm 7 mps 759 mmHg 73%
    08:00 +15°C° 0 mm 7 mps 759 mmHg 69%
    09:00 +16°C° 0 mm 7 mps 759 mmHg 64%
    10:00 +17°C° 0 mm 7 mps 759 mmHg 60%
    11:00 +17°C° 0.2 mm 7 mps 759 mmHg 60%
    12:00 +18°C° 0.2 mm 7 mps 759 mmHg 61%
    13:00 +18°C° 0.2 mm 7 mps 759 mmHg 61%
    14:00 +19°C° 0.1 mm 6 mps 759 mmHg 61%
    15:00 +19°C° 0.1 mm 6 mps 759 mmHg 60%
    16:00 +19°C° 0.1 mm 6 mps 759 mmHg 60%
    17:00 +17°C° 0.1 mm 6 mps 759 mmHg 63%
    18:00 +16°C° 0.1 mm 6 mps 759 mmHg 66%
    19:00 +16°C° 0.1 mm 6 mps 759 mmHg 69%
    20:00 +15°C° 0.2 mm 5 mps 759 mmHg 74%
    21:00 +14°C° 0.2 mm 5 mps 759 mmHg 79%
    22:00 +13°C° 0.2 mm 5 mps 760 mmHg 84%
    23:00 +13°C° 0.1 mm 4 mps 760 mmHg 85%

    24 June, Sunday

    Time Temperature Precipitation Wind Pressure Humidity
    00:00 +13°C° 0.1 mm 4 mps 760 mmHg 86%
    01:00 +13°C° 0.1 mm 4 mps 760 mmHg 87%
    02:00 +13°C° 0.1 mm 4 mps 760 mmHg 89%
    03:00 +12°C° 0.1 mm 4 mps 760 mmHg 90%
    04:00 +12°C° 0.1 mm 5 mps 760 mmHg 92%
    05:00 +13°C° 0.1 mm 5 mps 760 mmHg 87%
    06:00 +15°C° 0.1 mm 5 mps 760 mmHg 82%
    07:00 +16°C° 0.1 mm 5 mps 760 mmHg 77%
    08:00 +17°C° 0.2 mm 6 mps 760 mmHg 74%
    09:00 +17°C° 0.2 mm 6 mps 760 mmHg 72%
    10:00 +19°C° 0.2 mm 6 mps 760 mmHg 69%
    11:00 +19°C° 0.3 mm 6 mps 760 mmHg 66%
    12:00 +20°C° 0.3 mm 5 mps 760 mmHg 62%
    13:00 +20°C° 0.3 mm 5 mps 760 mmHg 59%
    14:00 +20°C° 0.1 mm 5 mps 760 mmHg 57%
    15:00 +21°C° 0.1 mm 5 mps 760 mmHg 55%
    16:00 +21°C° 0.1 mm 4 mps 760 mmHg 53%
    17:00 +20°C° 0 mm 4 mps 761 mmHg 58%
    18:00 +19°C° 0 mm 4 mps 761 mmHg 62%
    19:00 +18°C° 0 mm 4 mps 761 mmHg 67%
    20:00 +17°C° 0 mm 3 mps 761 mmHg 71%
    21:00 +16°C° 0 mm 3 mps 761 mmHg 75%
    22:00 +15°C° 0 mm 2 mps 762 mmHg 79%
    23:00 +15°C° 0 mm 2 mps 762 mmHg 81%

    25 June, Monday

    Time Temperature Precipitation Wind Pressure Humidity
    00:00 +14°C° 0 mm 2 mps 762 mmHg 82%
    01:00 +14°C° 0 mm 1 mps 762 mmHg 83%
    02:00 +14°C° 0 mm 1 mps 762 mmHg 84%
    03:00 +13°C° 0 mm 2 mps 762 mmHg 85%
    04:00 +13°C° 0 mm 2 mps 762 mmHg 86%
    05:00 +15°C° 0 mm 2 mps 762 mmHg 81%
    06:00 +17°C° 0 mm 2 mps 763 mmHg 76%
    07:00 +18°C° 0 mm 3 mps 763 mmHg 71%
    08:00 +19°C° 0.1 mm 3 mps 763 mmHg 68%
    09:00 +20°C° 0.1 mm 3 mps 763 mmHg 65%
    10:00 +20°C° 0.1 mm 3 mps 763 mmHg 62%
    11:00 +21°C° 0 mm 3 mps 764 mmHg 58%
    12:00 +22°C° 0 mm 3 mps 764 mmHg 53%
    13:00 +24°C° 0 mm 3 mps 764 mmHg 49%
    14:00 +22°C° 0 mm 3 mps 764 mmHg 50%
    15:00 +22°C° 0 mm 3 mps 764 mmHg 51%
    16:00 +22°C° 0 mm 3 mps 764 mmHg 52%
    17:00 +21°C° 0 mm 3 mps 764 mmHg 57%
    18:00 +21°C° 0 mm 3 mps 764 mmHg 62%
    19:00 +20°C° 0 mm 2 mps 764 mmHg 67%
    20:00 +18°C° 0 mm 2 mps 764 mmHg 72%
    21:00 +16°C° 0 mm 1 mps 764 mmHg 77%
    22:00 +15°C° 0 mm 1 mps 765 mmHg 83%
    23:00 +15°C° 0 mm 1 mps 765 mmHg 80%

    26 June, Tuesday

    Time Temperature Precipitation Wind Pressure Humidity
    00:00 +15°C° 0 mm 2 mps 765 mmHg 78%
    01:00 +16°C° 0 mm 2 mps 765 mmHg 75%
    02:00 +16°C° 0 mm 2 mps 765 mmHg 75%
    03:00 +16°C° 0 mm 2 mps 764 mmHg 75%
    04:00 +16°C° 0 mm 3 mps 764 mmHg 75%
    05:00 +16°C° 0 mm 3 mps 764 mmHg 76%
    06:00 +17°C° 0 mm 3 mps 764 mmHg 78%
    07:00 +17°C° 0 mm 3 mps 764 mmHg 79%
    08:00 +19°C° 0 mm 3 mps 764 mmHg 74%
    09:00 +20°C° 0 mm 3 mps 764 mmHg 69%
    10:00 +21°C° 0 mm 3 mps 764 mmHg 64%
    11:00 +22°C° 0.1 mm 3 mps 764 mmHg 62%
    12:00 +22°C° 0.1 mm 3 mps 764 mmHg 60%
    13:00 +23°C° 0.1 mm 4 mps 764 mmHg 58%
    14:00 +23°C° 0.1 mm 4 mps 764 mmHg 58%
    15:00 +23°C° 0.1 mm 4 mps 764 mmHg 58%
    16:00 +23°C° 0.1 mm 4 mps 764 mmHg 59%
    17:00 +22°C° 0 mm 4 mps 764 mmHg 63%
    18:00 +22°C° 0 mm 3 mps 764 mmHg 67%
    19:00 +21°C° 0 mm 3 mps 764 mmHg 71%
    20:00 +19°C° 0 mm 2 mps 764 mmHg 76%
    21:00 +18°C° 0 mm 2 mps 764 mmHg 81%
    22:00 +16°C° 0 mm 1 mps 765 mmHg 87%
    23:00 +16°C° 0 mm 1 mps 765 mmHg 85%
    Show more